Regional Weather Roundup
Issued by NWS

Home | Current Version | Previous Version | Graphics & Text | Print | Product List | Glossary Off
Versions: 1 2 3 4 5 6 7 8 9 10 11 12 13 14 15 16 17 18 19 20 21 22 23 24 25 26 27 28 29 30 31 32 33 34 35 36 37 38 39 40 41 42 43 44 45 46 47 48 49 50

000
ASUS43 KMPX 282010
RWRMN
WEATHER ROUNDUP FOR MINNESOTA
NATIONAL WEATHER SERVICE TWIN CITIES/CHANHASSEN MN
300 PM CDT THU MAY 28 2015


NOTE: "FAIR" INDICATES FEW OR NO CLOUDS BELOW 12,000 FEET WITH NO
SIGNIFICANT WEATHER AND/OR OBSTRUCTIONS TO VISIBILITY. N/A MEANS
CURRENT SKY AND/OR WEATHER CONDITIONS ARE NOT AVAILABLE.

MNZ060>063-068>070-282100-
   Twin Cities Metro

CITY           SKY/WX    TMP DP  RH WIND       PRES   REMARKS
TWIN CITIES    MOSUNNY   82  52  35 S16G28    30.00F
ST PAUL        MOSUNNY   84  53  34 S18G24    30.00F
CRYSTAL        MOSUNNY   84  53  34 S16G25    29.98F
BLAINE         MOSUNNY   84  54  34 S13G23    30.00F
LAKEVILLE      MOSUNNY   81  54  39 S14G23    30.02S
EDEN PRAIRIE   MOSUNNY   83  56  39 S15G23    29.99F
SOUTH ST PAUL  MOSUNNY   84  51  31 SW15G24   30.00F
LAKE ELMO      FAIR      81  55  41 S17G25    30.02F
$$
MNZ001>005-007-008-013>017-022>024-027-028-282100-
   Northwest Minnesota

CITY           SKY/WX    TMP DP  RH WIND       PRES   REMARKS
BEMIDJI        MOSUNNY   74  62  66 S10G17    29.87F
HALLOCK        PTSUNNY   72  63  73 SW8       29.83F
ROSEAU         MOSUNNY   66  61  82 S8        29.87F
WARROAD        CLOUDY    63  57  82 S7        29.89S
THIEF RVR FALL PTSUNNY   73  64  73 SW12      29.84F
CROOKSTON      MOSUNNY   79  63  57 SW17      29.82F
FOSSTON        PTSUNNY   77  63  61 SW18G25   29.85F
DETROIT LAKES  SUNNY     79  59  50 S20G25    29.89F
MOORHEAD       MOSUNNY   82  57  42 S16G26    29.83F
PARK RAPIDS    MOSUNNY   84  50  30 S21G31    29.91S
MAHNOMEN       MOCLDY    79  57  47 S26G33    29.85F
$$
MNZ006-009>011-018-025>026-282100-
   North Central Minnesota

CITY           SKY/WX    TMP DP  RH WIND       PRES   REMARKS
BAUDETTE       LGT RAIN  59  56  89 SE10      29.90F FOG
FLAG ISLAND    CLOUDY    61  57  88 S9        29.87F
INTL FALLS     CLOUDY    61  54  77 SE10      29.92F
WASKISH        PTSUNNY   66  61  82 E10       29.88F
BIG FORK       PTSUNNY   75  57  53 S7        29.90F
LONGVILLE      MOSUNNY   81  48  32 SW12G23   29.92F
GRAND RAPIDS   MOSUNNY   81  52  36 SW20G25   29.93F
CRANE LAKE     PTSUNNY   70  54  56 S3        29.95F
COOK           MOSUNNY   75  54  46 S12G18    29.94F
WALKER         FAIR      82  47  29 SW18G26   29.89F
$$
MNZ012-019>021-037-282100-
   Northeast Minnesota

CITY           SKY/WX    TMP DP  RH WIND       PRES   REMARKS
DULUTH         MOSUNNY   52  45  77 SE17      30.03F
HIBBING        MOSUNNY   74  52  46 S9G18     29.96F
EVELETH        MOSUNNY   72  52  49 S14       29.98F
DULUTH HARBOR  CLOUDY    45  43  93 NE17      30.07F
TWO HARBORS    MOSUNNY   61  52  72 E10       30.02F
SILVER BAY     MOSUNNY   55  46  71 NE9       30.03F
GRAND MARAIS     N/A     48  42  80 NE10      30.07F
G MARAIS ARPRT MOSUNNY   61  46  59 SE7       30.06F
$$
MNZ029>031-032-039>041-046>048-054>057-064-282100-
   West Central Minnesota

CITY           SKY/WX    TMP DP  RH WIND       PRES   REMARKS
FERGUS FALLS   MOSUNNY   81  55  41 S25G33    29.88F
WHEATON        SUNNY     81  55  41 S17G28    29.87F
MORRIS         MOSUNNY   82  54  36 S24G32    29.90F
ALEXANDRIA     PTSUNNY   77  54  44 S18       29.95F
ELBOW LAKE     FAIR      80  56  43 S22G30    29.90F
WADENA         SUNNY     77  52  41 S16G24    29.92F
GLENWOOD       PTSUNNY   77  55  47 S13G20    29.95F
APPLETON       MOSUNNY   82  50  32 S14G30    29.90F
BENSON         PTSUNNY   82  48  30 SW16G23   29.91F
ORTONVILLE     MOSUNNY   81  57  44 S12G26    29.89F
MADISON        PTSUNNY   84  50  30 S23G31    29.90F
WILLMAR          N/A     82  46  28 S6        29.95F
$$
MNZ033>034-036-042>043-049>051-058-059-282100-
   Central Minnesota

CITY           SKY/WX    TMP DP  RH WIND       PRES   REMARKS
ST CLOUD       PTSUNNY   81  52  36 S22G28    29.96F
SAUK CENTRE    CLOUDY    79  52  38 S21       29.94F
PAYNESVILLE    PTSUNNY   77  48  35 SE16G25   29.96F
AITKIN         MOSUNNY   84  52  32 S16G28    29.93F
PINE RIVER     SUNNY     81  54  39 SW16G25   29.96S
BRAINERD       MOSUNNY   80  51  36 SW21G29   29.95S
STAPLES        MOSUNNY   79  50  36 SW17G23   29.94S
LONG PRAIRIE   CLOUDY    77  50  38 S16G22    29.95F
LITTLE FALLS   PTSUNNY   81  45  28 S16G26    29.95F
LITCHFIELD     CLOUDY    82  52  34 SE7G17    29.97F
BUFFALO        PTSUNNY   82  51  34 S8G20     29.99F
MAPLE LAKE     PTSUNNY   83  55  37 S14G23    29.99F
$$
MNZ037-044-045-052-053-282100-
   East Central Minnesota

CITY           SKY/WX    TMP DP  RH WIND       PRES   REMARKS
PRINCETON      MOSUNNY   82  52  34 S13G23    29.98F
MORA           MOSUNNY   79  48  34 S16       29.99F
CAMBRIDGE      MOSUNNY   84  61  45 S10G18    29.97F
RUSH CITY      MOSUNNY   83  49  31 S17G26    29.99F
MOOSE LAKE     MOSUNNY   73  52  46 NE6       29.96F
HINCKLEY       FAIR      82  52  34 SW20G28   29.98F
CLOQUET        MOSUNNY   59  46  63 E10       30.01F
MCGREGOR       MOSUNNY   79  50  36 SW16G23   29.96F
$$
MNZ071>073-080-081-089-090-097-098-282100-
   Southwest Minnesota

CITY           SKY/WX    TMP DP  RH WIND       PRES   REMARKS
MONTEVIDEO     PTSUNNY   82  52  34 SW15G25   29.92F
GRANITE FALLS  PTSUNNY   87  47  25 S20G29    29.94F
CANBY          MOSUNNY   82  51  34 S17G26    29.92F
MARSHALL       MOSUNNY   82  46  28 S24G32    29.93F
REDWOOD FALLS  MOSUNNY   85  48  27 S22G30    29.95F
OLIVIA         PTSUNNY   79  46  31 S21G26    29.95F
PIPESTONE      MOSUNNY   81  48  32 S22G28    29.96S
WINDOM         SUNNY     81  48  32 S17G28    29.99F
WORTHINGTON    MOSUNNY   81  46  30 S18G29    29.98F
JACKSON        MOSUNNY   81  46  30 S16G28    30.02S
TRACY          MOSUNNY   83  49  29 S20G29    29.96F
SLAYTON        SUNNY     83  43  24 S20G29    29.97F
$$
MNZ065>067-074>077-082>085-091>093-282100-
   South Central Minnesota

CITY           SKY/WX    TMP DP  RH WIND       PRES   REMARKS
MANKATO        MOSUNNY   82  52  34 S14G26    30.00F
NEW ULM        MOSUNNY   82  52  34 S18G25    29.98F
FAIRMONT       MOSUNNY   81  50  34 S17G26    30.01F
GLENCOE        PTSUNNY   82  55  39 S15G22    29.98F
FARIBAULT      MOSUNNY   82  54  36 S14G22    30.03F
OWATONNA       MOSUNNY   81  46  30 S17       30.04F
WASECA         MOSUNNY   82  50  32 S17G24    30.04F
ALBERT LEA     PTSUNNY   81  50  34 S13G22    30.04F
$$
MNZ078>079-086>088-094>096-282100-
   Southeast Minnesota

CITY           SKY/WX    TMP DP  RH WIND       PRES   REMARKS
ROCHESTER      MOSUNNY   79  56  45 S17G26    30.08F
RED WING       MOSUNNY   84  52  32 S12G17    30.02F
STANTON        MOSUNNY   83  51  33 S15G25    30.01F
DODGE CENTER   MOSUNNY   81  52  36 S18G26    30.06F
WINONA         PTSUNNY   81  55  41 S6        30.06F
AUSTIN         PTSUNNY   77  54  44 S10       30.06F
PRESTON        PTSUNNY   78  54  42 S14G28    30.09F
$$
ABBREVIATIONS USED IN REMARKS
   TC - TEMPERATURES IN CELSIUS
  WCI - WIND CHILL INDEX
   HX - HEAT INDEX
  VSB - VISIBILITY
$$



USA.gov is the U.S. government's official web portal to all federal, state and local government web resources and services.